MXY600 KPVU-KSFO

Flight info

Callsign MXY600
Flight time N/A
Altitude 30000
Route DAHLI DTA J148 OAL INYOE DYAMD5
Aircraft E190/M-SDE3GILORVW/S

Departure

Time 2026-05-04 21:56
Airport Provo Municipal Airport (KPVU)

Arrival

Time N/A
Airport San Francisco International Airport (KSFO)
Time Latitude Longitude Altitude Speed Heading
2026-05-04 21:39 40.21369 -111.71333 4497 ft 0 kts 56°
2026-05-04 21:52 40.21367 -111.71336 4500 ft 3 kts 54°
2026-05-04 21:52 40.21362 -111.71347 4497 ft 3 kts 57°
2026-05-04 21:52 40.21353 -111.71377 4502 ft 4 kts 99°
2026-05-04 21:52 40.21364 -111.71403 4497 ft 3 kts 145°
2026-05-04 21:53 40.21367 -111.71406 4497 ft 0 kts 146°
2026-05-04 21:54 40.21358 -111.71398 4499 ft 5 kts 146°
2026-05-04 21:54 40.21313 -111.71358 4497 ft 10 kts 146°
2026-05-04 21:54 40.21258 -111.71373 4498 ft 9 kts 224°
2026-05-04 21:54 40.21218 -111.71413 4502 ft 7 kts 187°
2026-05-04 21:55 40.21154 -111.71398 4497 ft 11 kts 202°
2026-05-04 21:55 40.21097 -111.71482 4497 ft 12 kts 236°
2026-05-04 21:55 40.21104 -111.71543 4498 ft 4 kts 316°
2026-05-04 21:55 40.21134 -111.71571 4500 ft 27 kts 324°
2026-05-04 21:56 40.21481 -111.71879 4502 ft 93 kts 326°
2026-05-04 21:56 40.22191 -111.72513 4503 ft 151 kts 326°
2026-05-04 21:56 40.23148 -111.73403 4783 ft 180 kts 317°
2026-05-04 21:56 40.24001 -111.74705 5451 ft 203 kts 297°
2026-05-04 21:57 40.24520 -111.76482 5464 ft 217 kts 283°
2026-05-04 21:57 40.24488 -111.78682 5005 ft 262 kts 250°
2026-05-04 21:57 40.23489 -111.80589 5752 ft 256 kts 225°
2026-05-04 21:57 40.22219 -111.82211 6889 ft 251 kts 223°
2026-05-04 21:58 40.20928 -111.83745 7932 ft 252 kts 223°
2026-05-04 21:58 40.19567 -111.85332 8470 ft 271 kts 221°
2026-05-04 21:58 40.18084 -111.86948 9167 ft 281 kts 219°
2026-05-04 21:58 40.16533 -111.88539 10029 ft 286 kts 218°
2026-05-04 21:59 40.14931 -111.90109 10805 ft 290 kts 216°
2026-05-04 21:59 40.13184 -111.91450 11440 ft 301 kts 199°
2026-05-04 21:59 40.11103 -111.92150 11900 ft 317 kts 191°
2026-05-04 21:59 40.08879 -111.92723 12377 ft 333 kts 191°
2026-05-04 22:00 40.06570 -111.93341 12927 ft 344 kts 191°
2026-05-04 22:00 40.04218 -111.93978 13804 ft 347 kts 192°
2026-05-04 22:00 40.01838 -111.94564 14648 ft 350 kts 185°
2026-05-04 22:00 39.99413 -111.94225 15493 ft 355 kts 166°
2026-05-04 22:01 39.97035 -111.93281 16328 ft 359 kts 163°
2026-05-04 22:01 39.94642 -111.92282 17078 ft 364 kts 163°
2026-05-04 22:01 39.92249 -111.91277 17796 ft 368 kts 163°
2026-05-04 22:01 39.89792 -111.90270 18456 ft 372 kts 167°
2026-05-04 22:02 39.87218 -111.89999 19074 ft 374 kts 185°
2026-05-04 22:02 39.84629 -111.90400 19837 ft 375 kts 189°
2026-05-04 22:02 39.82030 -111.90848 20488 ft 379 kts 189°
2026-05-04 22:02 39.79404 -111.91308 21074 ft 383 kts 189°
2026-05-04 22:03 39.76744 -111.91781 21607 ft 388 kts 189°
2026-05-04 22:03 39.74055 -111.92263 22134 ft 392 kts 190°
2026-05-04 22:03 39.71424 -111.93173 22618 ft 393 kts 207°
2026-05-04 22:03 39.69237 -111.95262 23176 ft 392 kts 226°
2026-05-04 22:04 39.67363 -111.97843 23694 ft 394 kts 228°
2026-05-04 22:04 39.65498 -112.00452 24211 ft 395 kts 228°
2026-05-04 22:04 39.63631 -112.03068 24752 ft 396 kts 228°
2026-05-04 22:04 39.61765 -112.05690 25321 ft 394 kts 229°
2026-05-04 22:05 39.59907 -112.08299 25901 ft 394 kts 229°
2026-05-04 22:05 39.58053 -112.10911 26372 ft 395 kts 229°
2026-05-04 22:05 39.56190 -112.13545 26824 ft 397 kts 229°
2026-05-04 22:05 39.54328 -112.16185 27298 ft 397 kts 229°
2026-05-04 22:06 39.52458 -112.18841 27647 ft 400 kts 229°
2026-05-04 22:06 39.50583 -112.21505 28077 ft 401 kts 229°
2026-05-04 22:06 39.48704 -112.24173 28507 ft 402 kts 230°
2026-05-04 22:06 39.46822 -112.26848 28944 ft 401 kts 230°
2026-05-04 22:07 39.44958 -112.29494 29517 ft 398 kts 230°
2026-05-04 22:07 39.43105 -112.32121 29685 ft 390 kts 230°
2026-05-04 22:07 39.41333 -112.34652 29699 ft 370 kts 230°
2026-05-04 22:07 39.39638 -112.37074 29690 ft 357 kts 230°
2026-05-04 22:08 39.37983 -112.39438 29702 ft 354 kts 230°
2026-05-04 22:08 39.34674 -112.44161 29717 ft 356 kts 230°
2026-05-04 22:09 39.31367 -112.48895 29719 ft 352 kts 233°
2026-05-04 22:09 39.30037 -112.51527 29723 ft 350 kts 244°
2026-05-04 22:09 39.29156 -112.54451 29736 ft 350 kts 252°
2026-05-04 22:10 39.27736 -112.60470 29719 ft 351 kts 253°
2026-05-04 22:10 39.26374 -112.66519 29693 ft 350 kts 253°
2026-05-04 22:11 39.25029 -112.72561 29692 ft 351 kts 253°
2026-05-04 22:11 39.23686 -112.78609 29707 ft 351 kts 253°
2026-05-04 22:12 39.22339 -112.84659 29682 ft 351 kts 253°
2026-05-04 22:12 39.20989 -112.90707 29696 ft 351 kts 252°
2026-05-04 22:13 39.19635 -112.96755 29696 ft 351 kts 252°
2026-05-04 22:13 39.18287 -113.02764 29704 ft 351 kts 252°
2026-05-04 22:14 39.16928 -113.08803 29699 ft 351 kts 252°
2026-05-04 22:14 39.15568 -113.14836 29708 ft 350 kts 252°
2026-05-04 22:15 39.14206 -113.20852 29700 ft 350 kts 252°
2026-05-04 22:15 39.12842 -113.26870 29708 ft 350 kts 252°